When you browse on this site, cookies collect data to enhance your experience and personalize the content and advertising you see.
Visit our Privacy Policy to learn more. By continuing to use the site, you agree to this use of cookies and data.
  • en Belgique
  • Liste des pays
  • À 7 jours
  • Température de l'eau
  • Carte satellitaire
  • Carte météo
  • Widgets météo
  • user-avatar
    Se connecter

    Météo par heure à Etchmiadzin

    Ce jour, 23 Mars, Samedi

    Heure Température Précipitation Vent Pression Humidité
    00:00 +6°C° 0 mm 1 m/s 688 mmHg 45%
    01:00 +6°C° 0 mm 1 m/s 688 mmHg 47%
    02:00 +5°C° 0 mm 1 m/s 688 mmHg 48%
    03:00 +5°C° 0 mm 1 m/s 688 mmHg 49%
    04:00 +5°C° 0 mm 1 m/s 687 mmHg 51%
    05:00 +4°C° 0 mm 1 m/s 687 mmHg 52%
    06:00 +4°C° 0 mm 1 m/s 687 mmHg 53%
    07:00 +4°C° 0 mm 2 m/s 687 mmHg 48%
    08:00 +6°C° 0 mm 2 m/s 686 mmHg 43%
    09:00 +7°C° 0 mm 2 m/s 686 mmHg 38%
    10:00 +8°C° 0 mm 3 m/s 686 mmHg 37%
    11:00 +9°C° 0 mm 3 m/s 685 mmHg 35%
    12:00 +10°C° 0 mm 3 m/s 684 mmHg 33%
    13:00 +10°C° 0 mm 3 m/s 684 mmHg 34%
    14:00 +11°C° 0 mm 3 m/s 683 mmHg 34%
    15:00 +11°C° 0 mm 3 m/s 683 mmHg 34%
    16:00 +11°C° 0 mm 3 m/s 683 mmHg 36%
    17:00 +10°C° 0 mm 3 m/s 683 mmHg 38%
    18:00 +9°C° 0 mm 3 m/s 682 mmHg 40%
    19:00 +9°C° 0 mm 3 m/s 683 mmHg 41%
    20:00 +8°C° 0 mm 3 m/s 683 mmHg 42%
    21:00 +8°C° 0 mm 3 m/s 683 mmHg 43%
    22:00 +7°C° 0 mm 3 m/s 683 mmHg 45%
    23:00 +7°C° 0 mm 3 m/s 682 mmHg 46%

    Demain, 24 Mars, Dimanche

    Heure Température Précipitation Vent Pression Humidité
    00:00 +7°C° 0 mm 2 m/s 682 mmHg 47%
    01:00 +7°C° 0.2 mm 2 m/s 682 mmHg 50%
    02:00 +7°C° 0.2 mm 2 m/s 681 mmHg 53%
    03:00 +6°C° 0.2 mm 2 m/s 681 mmHg 56%
    04:00 +6°C° 0.1 mm 2 m/s 681 mmHg 57%
    05:00 +6°C° 0.1 mm 2 m/s 680 mmHg 58%
    06:00 +6°C° 0.1 mm 2 m/s 680 mmHg 59%
    07:00 +7°C° 0.1 mm 3 m/s 680 mmHg 56%
    08:00 +8°C° 0.1 mm 3 m/s 680 mmHg 53%
    09:00 +8°C° 0.1 mm 4 m/s 680 mmHg 49%
    10:00 +10°C° 0.1 mm 4 m/s 680 mmHg 47%
    11:00 +11°C° 0.1 mm 4 m/s 679 mmHg 45%
    12:00 +12°C° 0.1 mm 4 m/s 679 mmHg 42%
    13:00 +13°C° 0.2 mm 3 m/s 679 mmHg 43%
    14:00 +13°C° 0.2 mm 3 m/s 679 mmHg 43%
    15:00 +14°C° 0.2 mm 2 m/s 678 mmHg 43%
    16:00 +13°C° 0.8 mm 2 m/s 679 mmHg 49%
    17:00 +11°C° 0.8 mm 3 m/s 679 mmHg 54%
    18:00 +9°C° 0.8 mm 3 m/s 679 mmHg 60%
    19:00 +8°C° 0.8 mm 4 m/s 679 mmHg 61%
    20:00 +7°C° 0.8 mm 4 m/s 680 mmHg 61%
    21:00 +6°C° 0.8 mm 4 m/s 680 mmHg 62%
    22:00 +6°C° 0.1 mm 4 m/s 680 mmHg 62%
    23:00 +6°C° 0.1 mm 4 m/s 680 mmHg 62%

    Après-demain, 25 Mars, Lundi

    Heure Température Précipitation Vent Pression Humidité
    00:00 +5°C° 0.1 mm 3 m/s 681 mmHg 62%
    01:00 +5°C° 0.1 mm 3 m/s 681 mmHg 62%
    02:00 +5°C° 0.1 mm 3 m/s 680 mmHg 62%
    03:00 +4°C° 0.1 mm 3 m/s 680 mmHg 62%
    04:00 +4°C° 0 mm 3 m/s 680 mmHg 62%
    05:00 +4°C° 0 mm 3 m/s 680 mmHg 62%
    06:00 +3°C° 0 mm 3 m/s 680 mmHg 62%
    07:00 +5°C° 0 mm 3 m/s 680 mmHg 57%
    08:00 +7°C° 0 mm 3 m/s 680 mmHg 53%
    09:00 +9°C° 0 mm 3 m/s 680 mmHg 49%
    10:00 +10°C° 0 mm 3 m/s 679 mmHg 47%
    11:00 +11°C° 0 mm 3 m/s 679 mmHg 45%
    12:00 +12°C° 0 mm 3 m/s 678 mmHg 43%
    13:00 +13°C° 0 mm 2 m/s 678 mmHg 42%
    14:00 +14°C° 0 mm 2 m/s 678 mmHg 42%
    15:00 +14°C° 0 mm 2 m/s 678 mmHg 41%
    16:00 +13°C° 0 mm 2 m/s 678 mmHg 43%
    17:00 +13°C° 0 mm 2 m/s 678 mmHg 45%
    18:00 +12°C° 0 mm 2 m/s 679 mmHg 47%
    19:00 +10°C° 0.1 mm 2 m/s 679 mmHg 49%
    20:00 +10°C° 0.1 mm 2 m/s 680 mmHg 51%
    21:00 +9°C° 0.1 mm 2 m/s 681 mmHg 54%
    22:00 +9°C° 0.1 mm 2 m/s 681 mmHg 55%
    23:00 +8°C° 0.1 mm 2 m/s 681 mmHg 56%

    26 Mars, Mardi

    Heure Température Précipitation Vent Pression Humidité
    00:00 +8°C° 0.1 mm 2 m/s 681 mmHg 57%
    01:00 +7°C° 0 mm 2 m/s 681 mmHg 58%
    02:00 +7°C° 0 mm 2 m/s 681 mmHg 59%
    03:00 +7°C° 0 mm 1 m/s 681 mmHg 60%
    04:00 +7°C° 0 mm 1 m/s 681 mmHg 61%
    05:00 +7°C° 0 mm 1 m/s 681 mmHg 62%
    06:00 +6°C° 0 mm 1 m/s 681 mmHg 62%
    07:00 +8°C° 0 mm 1 m/s 681 mmHg 58%
    08:00 +9°C° 0 mm 1 m/s 681 mmHg 53%
    09:00 +10°C° 0 mm 1 m/s 682 mmHg 49%
    10:00 +11°C° 0 mm 1 m/s 681 mmHg 46%
    11:00 +13°C° 0 mm 1 m/s 681 mmHg 44%
    12:00 +14°C° 0 mm 1 m/s 681 mmHg 41%
    13:00 +14°C° 0 mm 1 m/s 681 mmHg 39%
    14:00 +14°C° 0 mm 1 m/s 680 mmHg 38%
    15:00 +15°C° 0 mm 2 m/s 680 mmHg 36%
    16:00 +14°C° 0 mm 2 m/s 680 mmHg 38%
    17:00 +14°C° 0 mm 2 m/s 680 mmHg 39%
    18:00 +13°C° 0 mm 2 m/s 680 mmHg 41%
    19:00 +13°C° 0 mm 2 m/s 680 mmHg 44%
    20:00 +12°C° 0 mm 2 m/s 681 mmHg 47%
    21:00 +10°C° 0 mm 2 m/s 681 mmHg 51%
    22:00 +9°C° 0 mm 2 m/s 681 mmHg 52%
    23:00 +9°C° 0 mm 2 m/s 681 mmHg 53%

    27 Mars, Mercredi

    Heure Température Précipitation Vent Pression Humidité
    00:00 +9°C° 0 mm 2 m/s 681 mmHg 54%
    01:00 +9°C° 0 mm 1 m/s 681 mmHg 56%
    02:00 +8°C° 0 mm 1 m/s 681 mmHg 57%
    03:00 +7°C° 0 mm 0 m/s 681 mmHg 59%
    04:00 +6°C° 0 mm 0 m/s 681 mmHg 60%
    05:00 +6°C° 0 mm 0 m/s 681 mmHg 61%
    06:00 +5°C° 0 mm 0 m/s 681 mmHg 63%
    07:00 +8°C° 0 mm 1 m/s 682 mmHg 58%
    08:00 +9°C° 0 mm 1 m/s 682 mmHg 54%
    09:00 +10°C° 0 mm 1 m/s 682 mmHg 49%
    10:00 +11°C° 0 mm 1 m/s 682 mmHg 47%
    11:00 +12°C° 0 mm 1 m/s 682 mmHg 45%
    12:00 +13°C° 0 mm 2 m/s 682 mmHg 43%
    13:00 +13°C° 0.1 mm 2 m/s 682 mmHg 42%
    14:00 +14°C° 0.1 mm 2 m/s 682 mmHg 41%
    15:00 +14°C° 0.1 mm 2 m/s 681 mmHg 41%
    16:00 +13°C° 0.1 mm 2 m/s 682 mmHg 42%
    17:00 +13°C° 0.1 mm 2 m/s 682 mmHg 43%
    18:00 +13°C° 0.1 mm 2 m/s 683 mmHg 44%
    19:00 +12°C° 0 mm 2 m/s 683 mmHg 46%
    20:00 +10°C° 0 mm 2 m/s 684 mmHg 48%
    21:00 +9°C° 0 mm 2 m/s 684 mmHg 49%
    22:00 +9°C° 0 mm 2 m/s 684 mmHg 50%
    23:00 +8°C° 0 mm 2 m/s 684 mmHg 51%

    28 Mars, Jeudi

    Heure Température Précipitation Vent Pression Humidité
    00:00 +8°C° 0 mm 2 m/s 684 mmHg 52%
    01:00 +8°C° 0.1 mm 2 m/s 684 mmHg 55%
    02:00 +7°C° 0.1 mm 2 m/s 684 mmHg 57%
    03:00 +7°C° 0.1 mm 2 m/s 684 mmHg 59%
    04:00 +7°C° 0.1 mm 2 m/s 684 mmHg 60%
    05:00 +7°C° 0.1 mm 2 m/s 684 mmHg 62%
    06:00 +6°C° 0.1 mm 2 m/s 684 mmHg 64%
    07:00 +7°C° 0.1 mm 2 m/s 684 mmHg 61%
    08:00 +8°C° 0.1 mm 2 m/s 684 mmHg 59%
    09:00 +9°C° 0.1 mm 2 m/s 684 mmHg 56%
    10:00 +9°C° 0.1 mm 2 m/s 684 mmHg 54%
    11:00 +10°C° 0.1 mm 2 m/s 684 mmHg 51%
    12:00 +11°C° 0.1 mm 3 m/s 684 mmHg 48%
    13:00 +11°C° 0.1 mm 3 m/s 683 mmHg 48%
    14:00 +11°C° 0.1 mm 3 m/s 683 mmHg 48%
    15:00 +11°C° 0.1 mm 3 m/s 683 mmHg 48%
    16:00 +10°C° 0.1 mm 3 m/s 683 mmHg 49%
    17:00 +10°C° 0.1 mm 2 m/s 683 mmHg 50%
    18:00 +9°C° 0.1 mm 2 m/s 683 mmHg 51%
    19:00 +9°C° 0.1 mm 2 m/s 683 mmHg 52%
    20:00 +9°C° 0.1 mm 2 m/s 684 mmHg 54%
    21:00 +8°C° 0.1 mm 2 m/s 684 mmHg 55%
    22:00 +9°C° 0.1 mm 1 m/s 684 mmHg 56%
    23:00 +8°C° 0.1 mm 1 m/s 684 mmHg 56%
    Voir plus